Archiv-/Tagesdaten

--Timestamp---	Temp	Chill	HIndex	Humid	Dewpt	 Wind 	HiWind	WindDir	Rain 	Barom	Solar	 ET  	 UV 
--------------	----	-----	------	-----	-----	------	------	-------	-----	-----	-----	-----	----
20090719 00:00	11.6	11.6	11.6	89	9.8	13	23	248	0.0	1017.0	0	0.025	0.0
20090719 00:05	11.5	11.5	11.5	89	9.7	14	24	248	0.0	1017.0	0	0.000	0.0
20090719 00:10	11.4	11.4	11.4	89	9.7	14	26	248	0.0	1017.1	0	0.000	0.0
20090719 00:15	11.4	11.4	11.4	88	9.5	14	23	248	0.0	1017.1	0	0.000	0.0
20090719 00:20	11.4	11.4	11.4	88	9.5	16	27	248	0.0	1017.1	0	0.000	0.0
20090719 00:25	11.4	11.4	11.4	88	9.5	14	24	248	0.0	1017.1	0	0.000	0.0
20090719 00:30	11.3	11.3	11.3	88	9.4	14	24	248	0.0	1017.3	0	0.000	0.0
20090719 00:35	11.4	11.4	11.4	88	9.5	14	27	248	0.0	1017.2	0	0.000	0.0
20090719 00:40	11.4	11.4	11.4	88	9.5	13	27	248	0.0	1017.2	0	0.000	0.0
20090719 00:45	11.4	11.4	11.4	88	9.5	13	24	248	0.0	1017.2	0	0.000	0.0
20090719 00:50	11.4	11.4	11.4	88	9.5	13	19	248	0.0	1017.3	0	0.000	0.0
20090719 00:55	11.4	11.4	11.4	88	9.5	13	24	248	0.0	1017.3	0	0.000	0.0
20090719 01:00	11.4	11.4	11.4	88	9.5	11	21	248	0.0	1017.4	0	0.025	0.0
20090719 01:05	11.4	11.4	11.4	88	9.5	11	21	248	0.0	1017.4	0	0.000	0.0
20090719 01:10	11.4	11.4	11.4	88	9.5	11	21	248	0.0	1017.4	0	0.000	0.0
20090719 01:15	11.4	11.4	11.4	88	9.5	13	23	248	0.0	1017.5	0	0.000	0.0
20090719 01:20	11.4	11.4	11.4	88	9.5	10	23	248	0.0	1017.4	0	0.000	0.0
20090719 01:25	11.5	11.5	11.5	87	9.4	14	27	248	0.0	1017.5	0	0.000	0.0
20090719 01:30	11.5	11.5	11.5	87	9.4	14	21	248	0.0	1017.5	0	0.000	0.0
20090719 01:35	11.6	11.6	11.6	87	9.5	14	24	270	0.0	1017.5	0	0.000	0.0
20090719 01:40	11.6	11.6	11.6	87	9.5	13	26	270	0.0	1017.6	0	0.000	0.0
20090719 01:45	11.6	11.6	11.6	87	9.5	14	23	248	0.0	1017.6	0	0.000	0.0
20090719 01:50	11.6	11.6	11.6	86	9.3	14	24	248	0.0	1017.6	0	0.000	0.0
20090719 01:55	11.6	11.6	11.6	86	9.3	14	23	248	0.0	1017.6	0	0.000	0.0
20090719 02:00	11.6	11.6	11.6	86	9.3	13	26	248	0.0	1017.6	0	0.025	0.0
20090719 02:05	11.6	11.6	11.6	86	9.3	14	23	248	0.0	1017.5	0	0.000	0.0
20090719 02:10	11.6	11.6	11.6	85	9.1	13	23	248	0.0	1017.4	0	0.000	0.0
20090719 02:15	11.6	11.6	11.6	86	9.3	10	19	270	0.0	1017.5	0	0.000	0.0
20090719 02:20	11.6	11.6	11.6	86	9.3	13	26	270	0.0	1017.5	0	0.000	0.0
20090719 02:25	11.6	11.6	11.6	85	9.1	13	23	248	0.0	1017.5	0	0.000	0.0
20090719 02:30	11.6	11.6	11.6	85	9.2	13	23	248	0.0	1017.6	0	0.000	0.0
20090719 02:35	11.6	11.6	11.6	85	9.2	13	19	270	0.0	1017.6	0	0.000	0.0
20090719 02:40	11.6	11.6	11.6	85	9.2	14	24	248	0.0	1017.6	0	0.000	0.0
20090719 02:45	11.7	11.7	11.7	85	9.2	13	23	270	0.0	1017.6	0	0.000	0.0
20090719 02:50	11.6	11.6	11.6	84	9.0	14	24	248	0.0	1017.6	0	0.000	0.0
20090719 02:55	11.6	11.6	11.6	85	9.2	11	23	270	0.0	1017.6	0	0.000	0.0
20090719 03:00	11.6	11.6	11.6	85	9.2	11	23	270	0.0	1017.6	0	0.025	0.0
20090719 03:05	11.6	11.6	11.6	85	9.1	10	21	270	0.0	1017.7	0	0.000	0.0
20090719 03:10	11.6	11.6	11.6	85	9.1	10	19	248	0.0	1017.7	0	0.000	0.0
20090719 03:15	11.6	11.6	11.6	85	9.1	8	18	248	0.0	1017.7	0	0.000	0.0
20090719 03:20	11.6	11.6	11.6	85	9.1	10	19	248	0.0	1017.7	0	0.000	0.0
20090719 03:25	11.6	11.6	11.6	85	9.1	10	19	270	0.0	1017.7	0	0.000	0.0
20090719 03:30	11.6	11.6	11.6	85	9.1	11	18	248	0.0	1017.7	0	0.000	0.0
20090719 03:35	11.6	11.6	11.6	84	9.0	10	18	248	0.0	1017.6	0	0.000	0.0
20090719 03:40	11.6	11.6	11.6	84	9.0	10	26	248	0.0	1017.6	0	0.000	0.0
20090719 03:45	11.6	11.6	11.6	84	9.0	10	19	248	0.0	1017.6	0	0.000	0.0
20090719 03:50	11.6	11.6	11.6	84	9.0	8	16	248	0.0	1017.6	0	0.000	0.0
20090719 03:55	11.6	11.6	11.6	83	8.8	8	19	248	0.0	1017.6	0	0.000	0.0
20090719 04:00	11.6	11.6	11.6	84	9.0	6	13	225	0.0	1017.6	0	0.025	0.0
20090719 04:05	11.6	11.6	11.6	84	9.0	6	11	225	0.0	1017.5	0	0.000	0.0
20090719 04:10	11.6	11.6	11.6	83	8.8	8	18	248	0.0	1017.5	0	0.000	0.0
20090719 04:15	11.6	11.6	11.6	84	8.9	6	18	225	0.0	1017.6	0	0.000	0.0
20090719 04:20	11.5	11.5	11.5	84	8.9	6	16	248	0.0	1017.6	0	0.000	0.0
20090719 04:25	11.5	11.5	11.5	84	8.9	6	11	248	0.0	1017.6	0	0.000	0.0
20090719 04:30	11.4	11.4	11.4	84	8.8	8	18	248	0.0	1017.6	0	0.000	0.0
20090719 04:35	11.4	11.4	11.4	84	8.8	6	11	225	0.0	1017.6	0	0.000	0.0
20090719 04:40	11.3	11.3	11.3	84	8.7	6	11	248	0.0	1017.6	0	0.000	0.0
20090719 04:45	11.2	11.2	11.2	85	8.8	5	11	225	0.0	1017.6	0	0.000	0.0
20090719 04:50	11.1	11.1	11.1	85	8.7	6	13	248	0.0	1017.6	0	0.000	0.0
20090719 04:55	11.1	11.1	11.1	85	8.6	6	14	225	0.0	1017.6	0	0.000	0.0
20090719 05:00	11.0	11.0	11.0	85	8.6	8	16	248	0.0	1017.5	0	0.025	0.0
20090719 05:05	11.0	11.0	11.0	85	8.6	8	14	248	0.0	1017.7	0	0.000	0.0
20090719 05:10	10.9	10.9	10.9	85	8.5	8	16	248	0.0	1017.7	0	0.000	0.0
20090719 05:15	10.9	10.9	10.9	85	8.5	8	13	248	0.0	1017.6	0	0.000	0.0
20090719 05:20	10.9	10.9	10.9	85	8.5	10	19	248	0.0	1017.6	0	0.000	0.0
20090719 05:25	11.0	11.0	11.0	84	8.4	10	16	248	0.0	1017.6	0	0.000	0.0
20090719 05:30	10.9	10.9	10.9	84	8.3	8	18	248	0.0	1017.6	0	0.000	0.0
20090719 05:35	10.9	10.9	10.9	84	8.3	10	16	248	0.0	1017.7	0	0.000	0.0
20090719 05:40	10.9	10.9	10.9	84	8.3	8	18	248	0.0	1017.7	3	0.000	0.0
20090719 05:45	10.9	10.9	10.9	84	8.3	8	16	225	0.0	1017.6	5	0.000	0.0
20090719 05:50	10.8	10.8	10.8	84	8.2	6	16	248	0.0	1017.7	8	0.000	0.0
20090719 05:55	10.7	10.7	10.7	84	8.1	6	11	225	0.0	1017.6	13	0.000	0.0
20090719 06:00	10.6	10.6	10.6	85	8.2	5	8	225	0.0	1017.6	17	0.025	0.0
20090719 06:05	10.5	10.5	10.5	85	8.1	5	10	202	0.0	1017.7	18	0.000	0.0
20090719 06:10	10.3	10.3	10.3	86	8.1	5	10	202	0.0	1017.7	20	0.000	0.0
20090719 06:15	10.2	10.2	10.2	87	8.2	5	8	202	0.0	1017.7	24	0.000	0.0
20090719 06:20	10.2	10.2	10.2	87	8.1	5	8	202	0.0	1017.8	28	0.000	0.0
20090719 06:25	10.1	10.1	10.1	87	8.0	5	8	202	0.0	1017.9	30	0.000	0.0
20090719 06:30	10.1	10.1	10.1	88	8.2	5	8	202	0.0	1017.9	33	0.000	0.0
20090719 06:35	10.1	10.1	10.1	88	8.2	5	10	202	0.0	1017.8	48	0.000	0.0
20090719 06:40	10.1	10.1	10.1	88	8.2	6	11	225	0.0	1017.8	67	0.000	0.0
20090719 06:45	10.3	10.3	10.3	87	8.2	5	10	248	0.0	1017.7	71	0.000	0.0
20090719 06:50	10.6	10.6	10.6	87	8.5	5	10	225	0.0	1017.8	60	0.000	0.0
20090719 06:55	10.8	10.8	10.8	86	8.5	5	11	225	0.0	1017.8	58	0.000	0.0
20090719 07:00	10.8	10.8	10.8	86	8.6	5	11	225	0.0	1017.8	57	0.025	0.0
20090719 07:05	10.9	10.9	10.9	86	8.6	6	10	202	0.0	1017.8	57	0.000	0.0
20090719 07:10	10.9	10.9	10.9	86	8.6	5	10	225	0.0	1017.9	55	0.000	0.0
20090719 07:15	10.9	10.9	10.9	85	8.5	5	10	248	0.0	1017.9	62	0.000	0.0
20090719 07:20	11.0	11.0	11.0	84	8.4	6	11	248	0.0	1017.9	60	0.000	0.0
20090719 07:25	11.1	11.1	11.1	83	8.3	6	14	248	0.0	1017.8	66	0.000	0.0
20090719 07:30	11.2	11.2	11.2	82	8.3	8	16	225	0.0	1017.8	106	0.000	0.3
20090719 07:35	11.4	11.4	11.4	81	8.3	8	16	248	0.0	1017.8	159	0.000	0.5
20090719 07:40	11.6	11.6	11.6	81	8.5	6	11	248	0.0	1017.8	164	0.000	0.6
20090719 07:45	11.9	11.9	11.9	82	8.9	5	11	225	0.0	1017.8	284	0.000	0.7
20090719 07:50	12.3	12.3	12.3	80	8.9	8	19	248	0.0	1017.6	295	0.000	0.8
20090719 07:55	12.7	12.7	12.7	77	8.7	11	21	248	0.0	1017.6	316	0.000	0.9
20090719 08:00	13.0	13.0	13.0	76	8.9	11	19	248	0.0	1017.6	304	0.102	0.9
20090719 08:05	13.1	13.1	13.1	75	8.7	10	18	248	0.0	1017.6	120	0.000	0.8
20090719 08:10	12.9	12.9	12.9	76	8.8	6	14	248	0.0	1017.6	131	0.000	0.9
20090719 08:15	12.9	12.9	12.9	76	8.8	11	21	248	0.0	1017.6	240	0.000	1.0
20090719 08:20	13.1	13.1	13.1	75	8.7	11	19	248	0.0	1017.6	184	0.000	1.0
20090719 08:25	13.2	13.2	13.2	76	9.0	10	16	248	0.0	1017.7	147	0.000	0.9
20090719 08:30	13.3	13.3	13.3	75	8.9	13	19	248	0.0	1017.8	163	0.000	1.0
20090719 08:35	13.4	13.4	13.4	74	8.9	10	18	248	0.0	1017.8	258	0.000	1.2
20090719 08:40	13.7	13.7	13.7	75	9.4	10	16	270	0.0	1017.6	280	0.000	1.1
20090719 08:45	13.9	13.9	13.9	74	9.4	10	16	270	0.0	1017.6	196	0.000	1.1
20090719 08:50	14.1	14.1	14.1	72	9.1	10	21	270	0.0	1017.7	256	0.000	1.4
20090719 08:55	14.3	14.3	14.3	70	8.9	11	21	248	0.0	1017.7	283	0.000	1.5
20090719 09:00	14.6	14.6	14.6	69	8.9	10	19	270	0.0	1017.7	290	0.127	1.7
20090719 09:05	14.8	14.8	14.8	70	9.4	10	19	248	0.0	1017.6	411	0.000	2.0
20090719 09:10	15.0	15.0	15.0	69	9.4	10	18	270	0.0	1017.6	353	0.000	1.8
20090719 09:15	15.2	15.2	15.2	67	9.1	13	24	270	0.0	1017.7	295	0.000	1.7
20090719 09:20	15.3	15.3	15.3	69	9.6	8	19	248	0.0	1017.7	240	0.000	1.6
20090719 09:25	15.1	15.1	15.1	66	8.8	13	26	270	0.0	1017.9	217	0.000	1.6
20090719 09:30	15.0	15.0	15.0	68	9.1	8	18	248	0.0	1017.9	203	0.000	1.6
20090719 09:35	15.0	15.0	15.0	69	9.4	10	19	248	0.0	1017.8	229	0.000	1.7
20090719 09:40	15.0	15.0	15.0	69	9.4	10	19	248	0.0	1017.8	281	0.000	1.9
20090719 09:45	15.0	15.0	15.0	69	9.4	8	14	270	0.0	1017.8	271	0.000	1.9
20090719 09:50	15.0	15.0	15.0	69	9.4	8	14	248	0.0	1017.8	253	0.000	1.8
20090719 09:55	15.2	15.2	15.2	66	8.9	10	23	270	0.0	1017.8	298	0.000	2.1
20090719 10:00	15.3	15.3	15.3	66	9.0	10	16	270	0.0	1017.9	254	0.178	2.0
20090719 10:05	15.3	15.3	15.3	64	8.5	13	23	270	0.0	1017.8	285	0.000	2.1
20090719 10:10	15.3	15.3	15.3	64	8.5	14	26	270	0.0	1017.8	267	0.000	2.0
20090719 10:15	15.3	15.3	15.3	65	8.7	14	23	270	0.0	1018.0	230	0.000	1.8
20090719 10:20	15.2	15.2	15.2	65	8.7	13	23	270	0.0	1018.0	226	0.000	1.9
20090719 10:25	15.2	15.2	15.2	64	8.4	16	32	270	0.0	1018.0	232	0.000	1.9
20090719 10:30	15.0	15.0	15.0	64	8.2	21	32	270	0.0	1018.1	228	0.000	1.9
20090719 10:35	15.0	15.0	15.0	66	8.7	14	26	270	0.0	1018.0	219	0.000	2.0
20090719 10:40	14.9	14.9	14.9	66	8.6	14	24	292	0.0	1018.0	217	0.000	1.9
20090719 10:45	14.9	14.9	14.9	67	8.8	14	26	292	0.0	1018.0	213	0.000	1.8
20090719 10:50	14.8	14.8	14.8	67	8.8	13	31	292	0.0	1018.1	161	0.000	1.4
20090719 10:55	14.7	14.7	14.7	67	8.7	16	29	270	0.0	1018.2	142	0.000	1.3
20090719 11:00	14.6	14.6	14.6	69	8.9	16	27	248	0.0	1018.4	150	0.178	1.4
20090719 11:05	14.4	14.4	14.4	70	9.0	13	23	270	0.0	1018.3	124	0.000	1.2
20090719 11:10	14.3	14.3	14.3	70	8.9	11	21	270	0.0	1018.3	113	0.000	1.1
20090719 11:15	14.4	14.4	14.4	70	9.0	16	27	248	0.0	1018.3	184	0.000	1.8
20090719 11:20	14.6	14.6	14.6	69	9.0	16	31	248	0.0	1018.2	290	0.000	2.6
20090719 11:25	15.0	15.0	15.0	69	9.4	13	24	270	0.0	1018.1	453	0.000	4.0
20090719 11:30	15.6	15.6	15.6	67	9.4	14	24	270	0.0	1018.0	535	0.000	4.7
20090719 11:35	15.9	15.9	15.9	66	9.6	19	32	248	0.0	1017.8	519	0.000	4.7
20090719 11:40	16.2	16.2	16.2	65	9.6	18	27	270	0.0	1017.7	430	0.000	3.9
20090719 11:45	16.2	16.2	16.2	66	9.9	18	27	270	0.0	1017.8	388	0.000	3.8
20090719 11:50	16.2	16.2	16.2	67	10.1	16	26	270	0.0	1017.8	449	0.000	4.3
20090719 11:55	16.5	16.5	16.5	66	10.1	16	27	270	0.0	1017.8	559	0.000	5.6
20090719 12:00	16.7	16.7	16.7	64	9.8	18	34	248	0.0	1017.8	503	0.254	4.8
20090719 12:05	16.7	16.7	16.7	64	9.9	21	34	248	0.0	1017.8	607	0.000	6.1
20090719 12:10	17.1	17.1	17.1	64	10.2	16	26	270	0.0	1017.7	724	0.000	6.9
20090719 12:15	17.4	17.4	17.4	62	10.1	16	35	270	0.0	1017.6	638	0.000	7.0
20090719 12:20	17.7	17.7	17.7	62	10.3	16	35	270	0.0	1017.6	508	0.000	5.4
20090719 12:25	17.8	17.8	17.8	61	10.2	18	31	248	0.0	1017.7	459	0.000	5.1
20090719 12:30	17.9	17.9	17.9	60	10.1	19	32	270	0.0	1017.7	512	0.000	6.3
20090719 12:35	18.1	18.1	18.1	60	10.2	19	34	270	0.0	1017.8	976	0.000	8.3
20090719 12:40	18.0	18.0	18.0	60	10.1	19	34	270	0.0	1017.9	514	0.000	5.6
20090719 12:45	17.9	17.9	17.9	61	10.3	18	34	248	0.0	1017.8	411	0.000	5.2
20090719 12:50	17.9	17.9	17.9	61	10.3	16	26	292	0.0	1017.7	442	0.000	5.5
20090719 12:55	18.2	18.2	18.2	59	10.0	19	32	248	0.0	1017.5	610	0.000	7.2
20090719 13:00	18.2	18.2	18.2	60	10.3	18	27	270	0.0	1017.5	397	0.457	5.0
20090719 13:05	18.2	18.2	18.2	61	10.5	19	34	270	0.0	1017.5	424	0.000	5.2
20090719 13:10	18.1	18.1	18.1	59	10.0	16	27	270	0.0	1017.5	300	0.000	3.7
20090719 13:15	18.1	18.1	18.1	60	10.2	16	31	270	0.0	1017.5	462	0.000	5.8
20090719 13:20	18.6	18.6	18.6	62	11.1	11	21	292	0.0	1017.4	1010	0.000	8.5
20090719 13:25	18.9	18.9	18.9	58	10.4	18	31	270	0.0	1017.4	367	0.000	4.7
20090719 13:30	18.7	18.7	18.7	57	10.0	14	26	292	0.0	1017.4	239	0.000	2.4
20090719 13:35	18.3	18.3	18.3	58	9.9	16	27	270	0.0	1017.4	212	0.000	2.2
20090719 13:40	18.1	18.1	18.1	60	10.2	14	23	270	0.0	1017.3	360	0.000	4.6
20090719 13:45	18.2	18.2	18.2	59	10.0	14	29	270	0.0	1017.2	375	0.000	4.4
20090719 13:50	18.3	18.3	18.3	58	9.9	11	21	270	0.0	1017.2	384	0.000	4.0
20090719 13:55	18.5	18.5	18.5	58	10.1	13	24	270	0.0	1017.3	448	0.000	4.3
20090719 14:00	18.6	18.6	18.6	58	10.2	13	23	270	0.0	1017.3	428	0.330	4.0
20090719 14:05	18.7	18.7	18.7	56	9.8	18	27	270	0.0	1017.2	564	0.000	5.4
20090719 14:10	18.9	18.9	18.9	56	9.9	14	26	248	0.0	1017.1	416	0.000	5.1
20090719 14:15	19.0	19.0	19.0	56	10.0	13	24	248	0.0	1017.0	355	0.000	4.7
20090719 14:20	19.3	19.3	19.3	57	10.5	8	23	270	0.0	1016.9	260	0.000	3.8
20090719 14:25	19.2	19.2	19.2	57	10.4	14	26	270	0.0	1017.0	182	0.000	1.8
20090719 14:30	18.8	18.8	18.8	55	9.5	14	29	248	0.0	1017.1	279	0.000	2.8
20090719 14:35	18.9	18.9	18.9	58	10.5	13	23	270	0.0	1017.0	556	0.000	4.6
20090719 14:40	18.9	18.9	18.9	57	10.2	13	21	270	0.0	1017.0	175	0.000	3.4
20090719 14:45	18.8	18.8	18.8	56	9.8	11	23	270	0.0	1016.9	167	0.000	2.6
20090719 14:50	19.1	19.1	19.1	55	9.8	16	29	270	0.0	1016.9	1039	0.000	6.6
20090719 14:55	19.9	19.9	19.9	52	9.7	18	27	270	0.0	1016.7	1078	0.000	6.7
20090719 15:00	20.3	20.3	20.3	51	9.8	18	31	270	0.0	1016.7	301	0.356	5.2
20090719 15:05	20.6	20.6	20.6	50	9.8	18	27	292	0.0	1016.6	371	0.000	4.2
20090719 15:10	20.4	20.4	20.4	50	9.6	16	26	270	0.0	1016.6	324	0.000	3.6
20090719 15:15	20.3	20.3	20.3	51	9.9	13	27	292	0.0	1016.7	417	0.000	3.7
20090719 15:20	20.3	20.3	20.3	53	10.4	14	34	292	0.0	1016.7	366	0.000	3.2
20090719 15:25	20.2	20.2	20.2	51	9.8	16	32	270	0.0	1016.9	383	0.000	3.3
20090719 15:30	20.0	20.0	20.0	49	9.0	19	35	270	0.0	1016.8	352	0.000	3.2
20090719 15:35	19.8	19.8	19.8	51	9.4	18	32	270	0.0	1016.8	308	0.000	2.7
20090719 15:40	19.8	19.8	19.8	50	9.0	19	37	270	0.0	1016.8	353	0.000	3.1
20090719 15:45	19.6	19.6	19.6	51	9.1	21	35	248	0.0	1017.0	325	0.000	2.6
20090719 15:50	19.6	19.6	19.6	51	9.1	19	32	248	0.0	1016.9	407	0.000	3.2
20090719 15:55	19.5	19.5	19.5	51	9.1	23	40	270	0.0	1017.0	382	0.000	3.3
20090719 16:00	19.4	19.4	19.4	52	9.3	21	32	270	0.0	1017.0	296	0.356	2.8
20090719 16:05	19.3	19.3	19.3	52	9.2	18	29	270	0.0	1017.1	276	0.000	2.3
20090719 16:10	19.2	19.2	19.2	52	9.1	18	32	270	0.0	1017.0	284	0.000	2.2
20090719 16:15	19.2	19.2	19.2	54	9.7	14	27	270	0.0	1017.0	303	0.000	2.4
20090719 16:20	19.3	19.3	19.3	55	10.0	14	24	270	0.0	1017.1	308	0.000	2.3
20090719 16:25	19.5	19.5	19.5	52	9.4	18	27	270	0.0	1017.1	432	0.000	3.0
20090719 16:30	19.7	19.7	19.7	52	9.5	13	24	270	0.0	1017.0	330	0.000	2.6
20090719 16:35	19.7	19.7	19.7	54	10.1	16	24	292	0.0	1017.0	289	0.000	2.8
20090719 16:40	19.9	19.9	19.9	52	9.8	18	32	292	0.0	1016.9	374	0.000	3.0
20090719 16:45	20.1	20.1	20.1	51	9.7	21	35	292	0.0	1016.9	355	0.000	2.9
20090719 16:50	20.3	20.3	20.3	52	10.1	24	40	270	0.0	1016.9	690	0.000	3.4
20090719 16:55	20.4	20.4	20.4	49	9.3	23	47	270	0.0	1016.9	441	0.000	3.1
20090719 17:00	20.7	20.7	20.7	51	10.2	23	39	270	0.0	1016.8	635	0.356	3.2
20090719 17:05	20.8	20.8	20.8	50	10.0	21	32	292	0.0	1016.7	607	0.000	3.1
20090719 17:10	21.0	21.0	21.0	51	10.5	18	35	270	0.0	1016.7	614	0.000	3.0
20090719 17:15	21.3	21.3	21.3	51	10.7	16	32	270	0.0	1016.8	637	0.000	2.8
20090719 17:20	21.1	21.1	21.1	49	10.0	19	32	270	0.0	1016.7	340	0.000	2.2
20090719 17:25	21.2	21.2	21.2	51	10.7	14	29	270	0.0	1016.7	593	0.000	2.5
20090719 17:30	21.4	21.4	21.4	48	10.0	23	43	292	0.0	1016.6	552	0.000	2.4
20090719 17:35	21.5	21.5	21.5	48	10.0	19	35	270	0.0	1016.6	524	0.000	2.3
20090719 17:40	21.4	21.4	21.4	47	9.7	23	37	270	0.0	1016.9	527	0.000	2.1
20090719 17:45	21.1	21.1	21.1	47	9.4	23	34	292	0.0	1016.9	199	0.000	1.8
20090719 17:50	20.8	20.8	20.8	50	10.0	21	34	292	0.0	1016.9	268	0.000	1.6
20090719 17:55	20.7	20.7	20.7	50	9.9	21	32	270	0.0	1017.0	405	0.000	1.7
20090719 18:00	20.7	20.7	20.7	50	9.9	24	39	292	0.0	1017.1	337	0.432	1.5
20090719 18:05	20.6	20.6	20.6	51	10.1	23	35	292	0.0	1017.0	451	0.000	1.6
20090719 18:10	20.7	20.7	20.7	54	11.0	19	32	292	0.0	1017.0	436	0.000	1.5
20090719 18:15	20.7	20.7	20.7	56	11.6	14	26	315	0.0	1016.9	420	0.000	1.4
20090719 18:20	20.2	20.2	20.2	57	11.4	19	32	315	0.0	1017.0	395	0.000	1.3
20090719 18:25	19.8	19.8	19.8	56	10.8	16	31	315	0.0	1017.2	379	0.000	1.2
20090719 18:30	19.6	19.6	19.6	56	10.5	16	32	315	0.0	1017.3	364	0.000	1.1
20090719 18:35	19.5	19.5	19.5	57	10.7	13	26	315	0.0	1017.4	350	0.000	1.0
20090719 18:40	19.5	19.5	19.5	58	11.0	10	18	315	0.0	1017.4	336	0.000	1.0
20090719 18:45	19.4	19.4	19.4	58	11.0	11	19	315	0.0	1017.4	322	0.000	0.9
20090719 18:50	19.4	19.4	19.4	58	10.9	10	19	315	0.0	1017.4	309	0.000	0.8
20090719 18:55	19.3	19.3	19.3	57	10.6	8	18	315	0.0	1017.5	297	0.000	0.8
20090719 19:00	19.4	19.4	19.4	60	11.5	5	11	270	0.0	1017.6	281	0.305	0.7
20090719 19:05	19.7	19.7	19.7	58	11.2	8	18	292	0.0	1017.3	266	0.000	0.6
20090719 19:10	19.6	19.6	19.6	58	11.1	11	21	292	0.0	1017.4	249	0.000	0.6
20090719 19:15	19.4	19.4	19.4	59	11.2	13	19	292	0.0	1017.5	230	0.000	0.5
20090719 19:20	19.1	19.1	19.1	59	10.9	10	19	292	0.0	1017.3	139	0.000	0.5
20090719 19:25	18.9	18.9	18.9	60	10.9	10	18	292	0.0	1017.4	52	0.000	0.0
20090719 19:30	18.8	18.8	18.8	60	10.8	10	19	270	0.0	1017.4	50	0.000	0.0
20090719 19:35	18.7	18.7	18.7	61	11.0	8	16	270	0.0	1017.5	47	0.000	0.0
20090719 19:40	18.7	18.7	18.7	60	10.7	11	23	270	0.0	1017.4	46	0.000	0.0
20090719 19:45	18.6	18.6	18.6	61	10.9	10	19	292	0.0	1017.4	44	0.000	0.0
20090719 19:50	18.5	18.5	18.5	61	10.8	10	16	270	0.0	1017.5	42	0.000	0.0
20090719 19:55	18.4	18.4	18.4	61	10.8	8	18	270	0.0	1017.5	40	0.000	0.0
20090719 20:00	18.4	18.4	18.4	60	10.5	11	19	270	0.0	1017.5	39	0.127	0.0
20090719 20:05	18.3	18.3	18.3	59	10.2	13	24	270	0.0	1017.5	37	0.000	0.0
20090719 20:10	18.3	18.3	18.3	59	10.2	11	21	270	0.0	1017.5	34	0.000	0.0
20090719 20:15	18.2	18.2	18.2	60	10.3	8	18	270	0.0	1017.5	32	0.000	0.0
20090719 20:20	18.1	18.1	18.1	59	10.0	10	18	292	0.0	1017.5	29	0.000	0.0
20090719 20:25	18.0	18.0	18.0	59	9.9	11	21	270	0.0	1017.6	26	0.000	0.0
20090719 20:30	18.0	18.0	18.0	59	9.9	13	26	270	0.0	1017.6	23	0.000	0.0
20090719 20:35	17.9	17.9	17.9	59	9.8	8	16	270	0.0	1017.6	20	0.000	0.0
20090719 20:40	17.8	17.8	17.8	60	9.9	8	11	270	0.0	1017.7	17	0.000	0.0
20090719 20:45	17.6	17.6	17.6	61	9.9	8	16	270	0.0	1017.7	13	0.000	0.0
20090719 20:50	17.3	17.3	17.3	62	10.0	6	14	270	0.0	1017.8	11	0.000	0.0
20090719 20:55	17.1	17.1	17.1	63	10.0	5	10	270	0.0	1017.9	8	0.000	0.0
20090719 21:00	16.9	16.9	16.9	63	9.8	5	8	270	0.0	1018.0	6	0.051	0.0
20090719 21:05	16.7	16.7	16.7	64	9.9	5	8	270	0.0	1017.9	3	0.000	0.0
20090719 21:10	16.5	16.5	16.5	65	9.9	3	6	270	0.0	1018.1	0	0.000	0.0
20090719 21:15	16.3	16.3	16.3	65	9.7	3	6	270	0.0	1018.3	0	0.000	0.0
20090719 21:20	16.2	16.2	16.2	66	9.8	3	6	270	0.0	1018.3	0	0.000	0.0
20090719 21:25	16.1	16.1	16.1	67	9.9	3	6	270	0.0	1018.4	0	0.000	0.0
20090719 21:30	15.9	15.9	15.9	67	9.8	3	6	270	0.0	1018.5	0	0.000	0.0
20090719 21:35	15.8	15.8	15.8	67	9.7	3	6	270	0.0	1018.6	0	0.000	0.0
20090719 21:40	15.7	15.7	15.7	67	9.6	3	6	270	0.0	1018.6	0	0.000	0.0
20090719 21:45	15.7	15.7	15.7	68	9.8	5	8	270	0.0	1018.7	0	0.000	0.0
20090719 21:50	15.6	15.6	15.6	69	9.9	2	5	270	0.0	1018.8	0	0.000	0.0
20090719 21:55	15.4	15.4	15.4	69	9.7	2	5	270	0.0	1018.9	0	0.000	0.0
20090719 22:00	15.3	15.3	15.3	69	9.6	2	5	270	0.0	1018.9	0	0.025	0.0
20090719 22:05	15.1	15.1	15.1	70	9.6	3	5	270	0.0	1019.2	0	0.000	0.0
20090719 22:10	15.0	15.0	15.0	70	9.6	2	5	270	0.0	1019.2	0	0.000	0.0
20090719 22:15	15.0	15.0	15.0	70	9.6	2	5	270	0.0	1019.2	0	0.000	0.0
20090719 22:20	15.0	15.0	15.0	71	9.8	3	5	270	0.0	1019.2	0	0.000	0.0
20090719 22:25	14.9	14.9	14.9	72	9.9	3	6	270	0.0	1019.2	0	0.000	0.0
20090719 22:30	14.7	14.7	14.7	72	9.7	3	6	248	0.0	1019.3	0	0.000	0.0
20090719 22:35	14.4	14.4	14.4	73	9.7	5	8	248	0.0	1019.3	0	0.000	0.0
20090719 22:40	14.3	14.3	14.3	74	9.7	3	6	248	0.0	1019.3	0	0.000	0.0
20090719 22:45	14.1	14.1	14.1	75	9.7	3	8	248	0.0	1019.4	0	0.000	0.0
20090719 22:50	13.9	13.9	13.9	76	9.8	3	8	202	0.0	1019.5	0	0.000	0.0
20090719 22:55	13.8	13.8	13.8	77	9.8	3	8	202	0.0	1019.6	0	0.000	0.0
20090719 23:00	13.6	13.6	13.6	78	9.8	3	6	202	0.0	1019.6	0	0.025	0.0
20090719 23:05	13.4	13.4	13.4	78	9.7	2	6	202	0.0	1019.4	0	0.000	0.0
20090719 23:10	13.3	13.3	13.3	78	9.6	3	8	202	0.0	1019.5	0	0.000	0.0
20090719 23:15	13.3	13.3	13.3	79	9.7	3	8	202	0.0	1019.4	0	0.000	0.0
20090719 23:20	13.2	13.2	13.2	79	9.6	3	5	202	0.0	1019.4	0	0.000	0.0
20090719 23:25	13.1	13.1	13.1	79	9.5	2	6	202	0.0	1019.4	0	0.000	0.0
20090719 23:30	12.9	12.9	12.9	80	9.5	2	5	202	0.0	1019.6	0	0.000	0.0
20090719 23:35	12.8	12.8	12.8	80	9.4	2	5	202	0.0	1019.6	0	0.000	0.0
20090719 23:40	12.7	12.7	12.7	80	9.4	3	6	202	0.0	1019.7	0	0.000	0.0
20090719 23:45	12.7	12.7	12.7	80	9.3	3	6	202	0.0	1019.7	0	0.000	0.0
20090719 23:50	12.7	12.7	12.7	80	9.3	3	8	202	0.0	1019.6	0	0.000	0.0
20090719 23:55	12.7	12.7	12.7	80	9.4	2	6	202	0.0	1019.7	0	0.000	0.0



Please note the license to use and transfer of this data:
http://creativecommons.org/licenses/by-nc-sa/3.0/deed.en

Bitte beachten sie die Lizenz zur Verwertung und Weitergabe der Daten:
http://creativecommons.org/licenses/by-nc-sa/3.0/deed.de

zurück zur Übersicht der Archivdaten (Monats und Tagesdaten)

Cookies helfen bei der Bereitstellung von Inhalten. Durch die Nutzung dieser Seiten erklärst du dich damit einverstanden, dass Cookies auf deinem Rechner gespeichert werden. Weitere Information